Location: ??????
(41.3747°N, 22.5491°E)
Time: 05:16:58
(UTC+00:00)

Cosmos 1602 - Pass Details

Date: 01 December 2020
Orbit: 512 x 534 km, 82.5° (Epoch: 20 January)

Event Time Altitude Azimuth Distance (km) Brightness Sun altitude
Rises 16:05:08 0° 355° (N) 2,684 7.2 -11.8°
Reaches altitude 10° 16:07:19 10° 358° (N) 1,785 6.3 -12.2°
Maximum altitude 16:11:13 67° 81° (E) 576 3.6 -12.9°
Drops below altitude 10° 16:15:03 10° 164° (SSE) 1,757 6.4 -13.6°
Sets 16:17:11 0° 167° (SSE) 2,637 7.4 -14.0°
